Terug naar catalogus

ATLAS 5 CENTAUR DEB

LostHEO
NORAD 46645·DEBRIS·🇺🇸 United States

Gelanceerd Sep 17, 2014 vanaf Cape Canaveral Space Force Station

Loading…

Volgende Passages (komende 24 uur)

TLE

VerouderdSource: Space-Track

Epoch: Mar 27, 2023, 21:39 UTC

1 46645U 14055CV  23086.90272748 -.00000099  00000-0  00000+0 0  9996
2 46645  20.7439 251.6910 5061651 337.4142   6.3329  1.83535484 16599

Volg ATLAS 5 CENTAUR DEB in realtime met AllMySat

Download on the App Store